Regional Weather Roundup
Issued by NWS Northern Indiana

Home | Current Version | Previous Version | Text Only | Print | Product List | Glossary Off
Versions: 1 2 3 4 5 6 7 8 9 10 11 12 13 14 15 16 17 18 19 20 21 22 23 24 25 26 27 28 29 30 31 32 33 34 35 36 37 38 39 40 41 42 43 44 45 46 47 48 49 50

000
ASUS43 KIWX 041500
RWRIWX

KIWX WEATHER ROUNDUP
NATIONAL WEATHER SERVICE NORTHERN INDIANA
1100 AM EDT WED MAY 04 2016

NOTE: "FAIR" INDICATES FEW OR NO CLOUDS BELOW 12,000 FEET WITH NO
SIGNIFICANT WEATHER AND/OR OBSTRUCTIONS TO VISIBILITY.

* THESE STATIONS ARE NOT UNDER NWS QUALITY CONTROL. THEY ALSO MAY NOT
  REPORT WEATHER SUCH AS PRECIPITATION OR FOG.

INZ001>027-041600-
NORTHERN INDIANA

CITY           SKY/WX    TMP DP  RH WIND       PRES   REMARKS
GARY*          PTSUNNY   48  45  87 N25G40    29.75R
SOUTH BEND     CLOUDY    42  39  89 NW25G31   29.67R
ELKHART*       CLOUDY    45  45 100 NW14G21   29.64R
GOSHEN         CLOUDY    47  42  83 NW23      29.62R
ANGOLA*        CLOUDY    48  46  93 NW13      29.58S
FORT WAYNE     CLOUDY    49  45  86 W12       29.61R
PERU/GRISSOM   CLOUDY    50  46  87 NW14G28   29.65R

$$
INZ028>050-041600-
CENTRAL INDIANA

CITY           SKY/WX    TMP DP  RH WIND       PRES   REMARKS
LAFAYETTE      PTSUNNY   51  44  77 N16G26    29.71R
KOKOMO*        CLOUDY    50  43  76 NW18G25   29.66R
MUNCIE*        CLOUDY    52  45  77 W15G24    29.64S
INDIANAPOLIS   PTSUNNY   54  47  77 NW14      29.67S

$$
MIZ043>046-050>051-056>058-064>065-071>073-077>080-041600-
SOUTHWEST LOWER MICHIGAN

CITY           SKY/WX    TMP DP  RH WIND       PRES   REMARKS
BATTLE CREEK   RAIN      46  43  89 NW18G26   29.57R FOG
BENTON HARBOR  CLOUDY    43  39  86 N10G24    29.68R
COLDWATER*     LGT RAIN  47  45  92 NW13G23   29.57R
HILLSDALE*     RAIN      51  46  82 S6        29.56F
HOLLAND        LGT RAIN N/A N/A N/A NW9       29.65R
GRAND RAPIDS   RAIN      46  43  89 N13       29.60S FOG
KALAMAZOO      LGT RAIN  47  41  80 NW17      29.60R
STURGIS*       CLOUDY    47  44  89 NW15G23   29.58S
THREE RIVERS*  LGT RAIN  47  43  85 W15       29.61R

$$
OHZ001>008-015>018-024>025-041600-
NORTHWEST OHIO

CITY           SKY/WX    TMP DP  RH WIND       PRES   REMARKS
DEFIANCE       LGT RAIN  55  46  71 SW12      29.58F
FINDLAY        CLOUDY    58  43  57 SW13      29.61F
TOLEDO EXPRESS PTSUNNY   57  45  64 SW9       29.59F
TOLEDO METCALF CLOUDY    56  48  74 S12       29.61F
LIMA           PTSUNNY   56  45  66 SW18      29.61F

$$
AND FOR LAKE MICHIGAN COASTAL AND OPEN LAKE BUOY OBSERVATIONS

STATION/POSITION TEMP    WIND        PRES    VSBY  WAVE
                 AIR SEA DIR/SP/G                  HT/PER
                 (F)     (DEG/KT/KT) (MB)    (MI)  (FT/S)
CALUMET HARBOR    45     340/ 17/ 24 1006.8R
MICHIGAN CITY     43     330/ 27/ 33   N/A
BURNS HARBOR      44     360/ 21     1007.1R
SAINT JOSEPH      44     320/ 24/ 30 1005.4S
SOUTH LAKE BUOY   41 40  350/ 23/ 27 1005.3          6/ 6
4 MI NW BRIDGMAN  43 47                N/A           8/ 5

$$
&&




USA.gov is the U.S. government's official web portal to all federal, state and local government web resources and services.